Preview of NWS' New Version of Forecast
This preview is not operational and should not be used for support decisions.

Regional Weather Roundup (RWR)

Issued by National Weather Service (NWS)

                            
000
ASUS43 KMKX 200920
RWRWI 

WISCONSIN REGIONAL WEATHER ROUNDUP
NATIONAL WEATHER SERVICE MILWAUKEE/SULLIVAN WI
400 AM CDT SAT APR 20 2019

NOTE: "FAIR" INDICATES FEW OR NO CLOUDS BELOW 12,000 FEET WITH NO
SIGNIFICANT WEATHER AND/OR OBSTRUCTIONS TO VISIBILITY.

WIZ001-002-006>008-014>016-023>028-201000-
NORTHWEST WISCONSIN
  
CITY           SKY/WX    TMP DP  RH WIND       PRES   REMARKS
SUPERIOR ARPT  FAIR      31  29  92 CALM      29.85S                  
ASHLAND        FAIR      36  23  59 SW5       29.87S WCI  32          
HAYWARD        FAIR      29  27  92 CALM      29.88F                  
SIREN          FAIR      33  29  83 CALM      29.88S                  
CUMBERLAND     FAIR      34  27  75 CALM      29.89S                  
RICE LAKE      FAIR      32  30  93 CALM      29.91S                  
CHETEK         FAIR      29  29  97 CALM      29.90S                  
LADYSMITH      FAIR      32  27  81 CALM      29.92S                  
EAU CLAIRE     FAIR      30  27  88 CALM      29.90F                  
MENOMONIE      FAIR      31  29  92 CALM      29.91S                  
NEW RICHMOND   FAIR      39  29  69 SE5       29.89F                  
OSCEOLA        FAIR      35  31  85 CALM      29.92S                  
$$
 
WIZ003>005-009-010-017-018-201000-
NORTH CENTRAL WISCONSIN
  
CITY           SKY/WX    TMP DP  RH WIND       PRES   REMARKS
MANITOWISH WTR FAIR      31  22  70 S3        29.90F                  
ARBOR VITAE    FAIR      32  24  73 CALM      29.91S                  
WOODRUFF       FAIR      32  24  73 CALM      29.91S                  
RHINELANDER    NOT AVBL                                               
EAGLE RIVER    FAIR      25  25  98 CALM      29.92S                  
LAND O LAKES   FAIR      24  23  96 CALM      29.93S                  
PHILLIPS       FAIR      27  26  95 CALM      29.90F                  
TOMAHAWK       FAIR      24  22  92 CALM      29.93S                  
MEDFORD        FAIR      34  25  69 SE6       29.92S WCI  29          
MERRILL        FAIR      25  24  96 CALM      29.94F                  
$$
 
WIZ029-030-035-036-043>047-201000-
CENTRAL WISCONSIN
  
CITY           SKY/WX    TMP DP  RH WIND       PRES   REMARKS
WAUSAU         NOT AVBL                                               
MOSINEE        FAIR      37  19  48 CALM      29.93F                  
MARSHFIELD     NOT AVBL                                               
STEVENS POINT  FAIR      26  24  92 CALM      29.94S                  
WAUPACA        FAIR      31  28  90 CALM      29.94F                  
WAUTOMA        NOT AVBL                                               
WISC RAPIDS    FAIR      29  23  78 CALM      29.94S                  
CAMP DOUGLAS   FAIR      28  28 100 CALM      29.93S                  
$$
 
WIZ011>013-019>022-031-037>040-048>050-201000-
NORTHEAST WISCONSIN
  
CITY           SKY/WX    TMP DP  RH WIND       PRES   REMARKS
ANTIGO         FAIR      29  26  90 CALM      29.93F                  
SHAWANO        FAIR      30  23  75 CALM      29.93F                  
OCONTO         FAIR      27  26  94 CALM      29.94S                  
STURGEON BAY   NOT AVBL                                               
GREEN BAY      FAIR      32  26  78 CALM      29.94S                  
MANITOWOC      FAIR      36  20  52 N6        29.93S WCI  31          
APPLETON       FAIR      32  21  64 N8        29.92S WCI  25          
CLINTONVILLE   FAIR      29  26  85 CALM      29.93F                  
OSHKOSH        FAIR      33  24  69 N6        29.92F WCI  28          
$$
 
WIZ032>034-041-042-053>061-201000-
SOUTHWEST WISCONSIN
  
CITY           SKY/WX    TMP DP  RH WIND       PRES   REMARKS
LA CROSSE      FAIR      38  29  70 SE6       29.93S WCI  33          
SPARTA         FAIR      27  25  93 CALM      29.94S                  
VIROQUA        FAIR      40  26  55 CALM      29.92F                  
BOSCOBEL       FAIR      31  26  82 CALM      29.94F                  
PRAIRIE DU CHI FAIR      34  29  82 CALM      29.93F                  
PLATTEVILLE    FAIR      42  25  51 NE7       29.91F                  
$$

WIZ056-057-062-063-064-067-068-201000-
SOUTH CENTRAL WISCONSIN
  
CITY           SKY/WX    TMP DP  RH WIND       PRES   REMARKS
REEDSBURG      FAIR      32  28  86 CALM      29.93S                  
BARABOO/DELLS  FAIR      29  25  82 CALM      29.93R                  
LONE ROCK      FAIR      32  27  81 CALM      29.93F                  
MINERAL POINT  FAIR      36  23  60 CALM      29.92S                  
MADISON        FAIR      32  25  75 CALM      29.92S                  
MIDDLETON      FAIR      32  28  85 CALM      29.92F                  
WATERTOWN      FAIR      33  23  68 N3        29.90F                  
MONROE         FAIR      39  21  48 MISG      29.90F                  
JANESVILLE     FAIR      37  23  56 N5        29.89F WCI  34          
$$
 
WIZ051-052-058>065-066-070>072-201000-
SOUTHEAST WISCONSIN
  
CITY           SKY/WX    TMP DP  RH WIND       PRES   REMARKS
MILWAUKEE      FAIR      42  22  44 N13       29.89R                  
WAUKESHA       FAIR      36  19  51 N5        29.91S WCI  32          
MILWAUKEE/TIMM FAIR      34  21  60 N7        29.90S WCI  28          
RACINE         FAIR      39  28  64 N15       29.89S WCI  31          
KENOSHA        FAIR      38  27  64 N9        29.87S WCI  31          
FOND DU LAC    FAIR      33  24  69 N5        29.92F WCI  29          
SHEBOYGAN      FAIR      38  21  50 N10       29.91S WCI  31          
WEST BEND      FAIR      36  19  51 N6        29.91S WCI  31          
JUNEAU         FAIR      33  23  66 N5        29.92S WCI  28          
$$

LSZ147-162-201000-
LAKE SUPERIOR
  
STATION/POSITION TIME  TEMP    WIND        PRES    WAVE
                       AIR SEA DIR/SP/G            HT/PER
                 (UTC) (F)     (DEG/KT/KT) (MB)    (FT/S)
$$
 
LMZ867-665-643>646-201000-
LAKE MICHIGAN
  
STATION/POSITION TIME  TEMP    WIND        PRES    WAVE
                       AIR SEA DIR/SP/G            HT/PER
                 (UTC) (F)     (DEG/KT/KT) (MB)    (FT/S)
NORTHPORT PIER   0840   32     300/  2/  2 1013.9S
KEWAUNEE LAKESHO 0854   40      10/  5/  9 1012.6F
SHEBOYGAN LAKESH 0900   41     340/ 13/ 15 1013.2S
MILWAUKEE LAKESH 0900   43                   N/A
KENOSHA   LAKESH 0900   43     360/ 20/ 25 1011.2
$$

TC  - TEMPERATURE IN CELSIUS
VSB - VISIBILITY IN STATUTE MILES
WCI - WIND CHILL INDEX
HX  - HEAT INDEX